Location: Camp Creek
(33.9000°N, 111.8167°W)
Time: 17:34:19
(UTC-07:00)

DELTA 2 R/B (1) - Visible Passes

Search period start: 28 February 2015 00:00
Search period end: 10 March 2015 00:00
Orbit: 791 x 804 km, 39.6° (Epoch: 28 February)

Date Brightness Start Highest point End Pass type
(mag) Time Alt. Az. Time Alt. Az. Time Alt. Az.
28 Feb 5.5 18:53:53 10° SSE 18:55:37 12° SE 18:57:39 10° ESE visible
28 Feb 4.6 20:36:04 10° SW 20:39:34 36° SSW 20:39:34 36° SSW visible
01 Mar 3.8 20:05:28 10° SW 20:10:48 47° SSE 20:11:05 47° SE visible
01 Mar 6.4 21:51:39 10° W 21:51:55 11° W 21:51:55 11° W visible
02 Mar 4.0 19:34:53 10° SW 19:40:09 43° SSE 19:42:32 28° E visible
02 Mar 5.4 21:20:56 10° W 21:23:22 26° W 21:23:22 26° W visible
03 Mar 4.2 19:04:18 10° SW 19:09:29 40° SSE 19:13:54 14° E visible
03 Mar 4.1 20:50:13 10° WSW 20:54:43 55° WNW 20:54:43 55° WNW visible
04 Mar 3.6 20:19:30 10° WSW 20:25:07 74° NNW 20:26:00 61° NE visible
04 Mar 6.5 22:06:37 10° WNW 22:06:48 11° WNW 22:06:48 11° WNW visible
05 Mar 3.6 19:48:48 10° WSW 19:54:25 78° NNW 19:57:12 31° ENE visible
05 Mar 5.7 21:35:54 10° WNW 21:38:01 22° WNW 21:38:01 22° WNW visible
06 Mar 3.6 19:18:06 10° WSW 19:23:43 82° NNW 19:28:21 16° ENE visible
06 Mar 4.7 21:05:10 10° WNW 21:09:09 39° NW 21:09:09 39° NW visible
07 Mar 3.7 18:47:24 10° WSW 18:53:02 87° NNW 18:58:40 10° ENE visible
07 Mar 4.1 20:34:25 10° W 20:39:51 48° N 20:40:14 47° N visible
08 Mar 4.2 20:03:41 10° W 20:09:08 49° N 20:11:17 33° NE visible
08 Mar 6.0 21:50:40 10° WNW 21:52:04 18° WNW 21:52:04 18° WNW visible
09 Mar 4.2 19:32:57 10° W 19:38:24 50° N 19:42:18 19° ENE visible
09 Mar 5.1 21:19:57 10° WNW 21:23:05 32° NW 21:23:05 32° NW visible
